Time,TemperatureF,DewpointF,PressureIn,WindDirection,WindDirectionDegrees,WindSpeedMPH,WindSpeedGustMPH,Humidity,HourlyPrecipIn,Conditions,Clouds,dailyrainin,SoftwareType,DateUTC
2014-01-05 00:01:00,65.8,65.5,30.07,East,86,3.5,3.5,99,0.00,RA,,0.00,WeatherDisplay:10.37,2014-01-05 05:01:00,
2014-01-05 00:02:00,65.9,65.6,30.07,East,87,5.0,5.0,99,0.00,RA,,0.00,WeatherDisplay:10.37,2014-01-05 05:02:00,
2014-01-05 00:03:00,65.9,65.6,30.07,ESE,113,5.8,5.8,99,0.00,RA,,0.00,WeatherDisplay:10.37,2014-01-05 05:03:00,
2014-01-05 00:08:00,66.0,65.7,30.07,East,98,3.5,3.5,99,0.00,RA,,0.00,WeatherDisplay:10.37,2014-01-05 05:08:00,
2014-01-05 00:10:00,65.9,65.6,30.06,East,86,3.5,3.5,99,0.00,CLR,,0.00,WeatherDisplay:10.37,2014-01-05 05:10:00,
2014-01-05 00:15:00,66.0,65.7,30.06,East,95,5.8,5.8,99,0.00,CLR,,0.00,WeatherDisplay:10.37,2014-01-05 05:15:00,
2014-01-05 00:20:00,66.1,65.8,30.05,East,80,3.5,3.5,99,0.00,CLR,,0.00,WeatherDisplay:10.37,2014-01-05 05:20:00,
2014-01-05 00:25:00,66.2,65.9,30.05,East,95,3.5,3.5,99,0.00,CLR,,0.00,WeatherDisplay:10.37,2014-01-05 05:25:00,
2014-01-05 00:30:00,66.2,65.9,30.05,East,89,3.5,3.5,99,0.00,CLR,,0.00,WeatherDisplay:10.37,2014-01-05 05:30:00,
2014-01-05 00:35:00,66.3,66.0,30.04,ESE,120,3.5,3.5,99,0.00,CLR,,0.00,WeatherDisplay:10.37,2014-01-05 05:35:00,
2014-01-05 00:40:00,66.2,65.9,30.04,ESE,120,2.3,2.3,99,0.00,CLR,,0.00,WeatherDisplay:10.37,2014-01-05 05:40:00,
2014-01-05 00:45:00,66.3,66.0,30.04,SE,129,3.5,3.5,99,0.00,CLR,,0.00,WeatherDisplay:10.37,2014-01-05 05:45:00,
2014-01-05 00:50:00,66.3,66.0,30.04,SE,125,3.5,3.5,99,0.00,CLR,,0.00,WeatherDisplay:10.37,2014-01-05 05:50:00,
2014-01-05 00:55:00,66.3,66.0,30.03,ESE,123,3.5,3.5,99,0.00,CLR,,0.00,WeatherDisplay:10.37,2014-01-05 05:55:00,
2014-01-05 01:00:00,66.3,66.0,30.03,ESE,122,3.5,3.5,99,0.00,CLR,,0.00,WeatherDisplay:10.37,2014-01-05 06:00:00,
2014-01-05 01:05:00,66.4,66.1,30.03,ESE,108,4.0,4.0,99,0.00,CLR,,0.00,WeatherDisplay:10.37,2014-01-05 06:05:00,
2014-01-05 01:10:00,66.4,66.1,30.02,East,97,8.1,8.1,99,0.00,CLR,,0.00,WeatherDisplay:10.37,2014-01-05 06:10:00,
2014-01-05 01:15:00,66.6,66.3,30.02,SE,134,6.0,6.0,99,0.00,CLR,,0.00,WeatherDisplay:10.37,2014-01-05 06:15:00,
2014-01-05 01:20:00,66.6,66.3,30.01,ESE,106,5.8,5.8,99,0.00,CLR,,0.00,WeatherDisplay:10.37,2014-01-05 06:20:00,
2014-01-05 01:25:00,66.7,66.4,30.01,ENE,70,5.8,5.8,99,0.00,CLR,,0.00,WeatherDisplay:10.37,2014-01-05 06:25:00,
2014-01-05 01:30:00,66.9,66.6,30.01,ESE,107,7.0,7.0,99,0.00,CLR,,0.00,WeatherDisplay:10.37,2014-01-05 06:30:00,
2014-01-05 01:35:00,67.0,66.7,30.00,East,101,6.9,6.9,99,0.00,CLR,,0.00,WeatherDisplay:10.37,2014-01-05 06:35:00,
2014-01-05 01:40:00,67.1,66.8,30.00,ESE,120,4.6,4.6,99,0.00,CLR,,0.00,WeatherDisplay:10.37,2014-01-05 06:40:00,
2014-01-05 01:45:00,67.2,66.9,29.99,ESE,103,8.0,8.0,99,0.00,CLR,,0.00,WeatherDisplay:10.37,2014-01-05 06:45:00,
2014-01-05 01:49:00,67.3,67.0,29.99,East,94,8.1,8.1,99,0.00,CLR,,0.00,WeatherDisplay:10.37,2014-01-05 06:49:00,
2014-01-05 01:50:00,67.3,67.0,29.99,East,94,8.1,8.1,99,0.00,CLR,,0.00,WeatherDisplay:10.37,2014-01-05 06:50:00,
2014-01-05 01:55:00,67.3,67.0,29.99,East,94,8.1,8.1,99,0.00,CLR,,0.00,WeatherDisplay:10.37,2014-01-05 06:55:00,
2014-01-05 02:23:00,67.7,67.1,29.96,East,94,8.1,8.1,98,0.01,RA,,0.01,WeatherDisplay:10.37,2014-01-05 07:23:00,
2014-01-05 02:25:00,67.8,67.2,29.96,ESE,110,10.4,10.4,98,0.01,RA,,0.01,WeatherDisplay:10.37,2014-01-05 07:25:00,
2014-01-05 02:28:00,67.8,67.2,29.96,ESE,110,10.4,10.4,98,0.01,RA,,0.01,WeatherDisplay:10.37,2014-01-05 07:28:00,
2014-01-05 02:33:00,67.8,67.2,29.96,ESE,110,10.4,10.4,98,0.01,RA,,0.01,WeatherDisplay:10.37,2014-01-05 07:33:00,
2014-01-05 03:08:00,69.1,68.2,29.92,East,85,15.0,15.0,97,0.01,RA,,0.01,WeatherDisplay:10.37,2014-01-05 08:08:00,
2014-01-05 03:13:00,69.2,68.3,29.90,NE,37,15.0,15.0,97,0.01,RA,,0.01,WeatherDisplay:10.37,2014-01-05 08:13:00,
2014-01-05 03:18:00,69.4,68.5,29.89,NE,55,20.7,20.7,97,0.01,CLR,,0.01,WeatherDisplay:10.37,2014-01-05 08:18:00,
2014-01-05 03:23:00,69.7,68.5,29.90,ENE,70,13.8,13.8,96,0.01,CLR,,0.01,WeatherDisplay:10.37,2014-01-05 08:23:00,
2014-01-05 03:28:00,69.8,68.6,29.90,East,92,19.6,19.6,96,0.01,CLR,,0.01,WeatherDisplay:10.37,2014-01-05 08:28:00,
2014-01-05 03:33:00,69.8,68.6,29.92,SE,126,6.9,6.9,96,0.01,CLR,,0.01,WeatherDisplay:10.37,2014-01-05 08:33:00,
2014-01-05 03:38:00,70.0,68.8,29.94,SE,143,12.0,12.0,96,0.01,CLR,,0.01,WeatherDisplay:10.37,2014-01-05 08:38:00,
2014-01-05 03:43:00,70.1,68.9,29.96,West,270,3.5,3.5,96,0.01,CLR,,0.01,WeatherDisplay:10.37,2014-01-05 08:43:00,
2014-01-05 03:48:00,69.9,68.7,29.97,West,262,3.5,3.5,96,0.01,CLR,,0.01,WeatherDisplay:10.37,2014-01-05 08:48:00,
2014-01-05 03:53:00,69.8,68.6,29.99,South,190,1.2,1.2,96,0.01,CLR,,0.01,WeatherDisplay:10.37,2014-01-05 08:53:00,
2014-01-05 03:58:00,69.7,68.5,29.98,NW,324,4.6,4.6,96,0.01,CLR,,0.01,WeatherDisplay:10.37,2014-01-05 08:58:00,
2014-01-05 04:03:00,69.7,68.5,29.97,WNW,287,3.5,3.5,96,0.01,CLR,,0.01,WeatherDisplay:10.37,2014-01-05 09:03:00,
2014-01-05 04:08:00,69.6,68.4,29.96,NW,324,3.5,3.5,96,0.00,CLR,,0.01,WeatherDisplay:10.37,2014-01-05 09:08:00,
2014-01-05 04:13:00,69.5,68.3,29.97,NW,324,6.9,6.9,96,0.00,CLR,,0.01,WeatherDisplay:10.37,2014-01-05 09:13:00,
2014-01-05 04:18:00,69.4,68.2,29.97,NW,316,6.0,6.0,96,0.00,CLR,,0.01,WeatherDisplay:10.37,2014-01-05 09:18:00,
2014-01-05 04:23:00,69.4,68.2,29.98,West,278,2.3,2.3,96,0.00,CLR,,0.01,WeatherDisplay:10.37,2014-01-05 09:23:00,
2014-01-05 04:28:00,69.3,68.1,29.99,WNW,298,3.5,3.5,96,0.00,CLR,,0.01,WeatherDisplay:10.37,2014-01-05 09:28:00,
2014-01-05 04:33:00,69.1,67.9,29.99,West,276,4.6,4.6,96,0.00,CLR,,0.01,WeatherDisplay:10.37,2014-01-05 09:33:00,
2014-01-05 04:38:00,68.8,67.6,29.99,NW,308,5.8,5.8,96,0.00,CLR,,0.01,WeatherDisplay:10.37,2014-01-05 09:38:00,
2014-01-05 04:43:00,68.7,67.5,29.99,NW,319,4.6,4.6,96,0.00,CLR,,0.01,WeatherDisplay:10.37,2014-01-05 09:43:00,
2014-01-05 04:48:00,68.6,67.1,29.99,WSW,240,2.3,2.3,95,0.00,CLR,,0.01,WeatherDisplay:10.37,2014-01-05 09:48:00,
2014-01-05 04:53:00,68.4,67.2,30.00,NW,323,4.6,4.6,96,0.00,CLR,,0.01,WeatherDisplay:10.37,2014-01-05 09:53:00,
2014-01-05 04:58:00,68.3,67.1,30.00,WSW,257,0.0,0.0,96,0.00,CLR,,0.01,WeatherDisplay:10.37,2014-01-05 09:58:00,
2014-01-05 05:03:00,68.1,66.9,30.00,NW,304,2.3,2.3,96,0.00,CLR,,0.01,WeatherDisplay:10.37,2014-01-05 10:03:00,
2014-01-05 05:08:00,68.0,66.8,30.00,WNW,293,3.5,3.5,96,0.00,CLR,,0.01,WeatherDisplay:10.37,2014-01-05 10:08:00,
2014-01-05 05:13:00,67.9,66.7,30.01,NW,315,3.5,3.5,96,0.00,CLR,,0.01,WeatherDisplay:10.37,2014-01-05 10:13:00,
2014-01-05 05:18:00,67.8,66.6,30.01,NW,315,4.0,4.0,96,0.00,CLR,,0.01,WeatherDisplay:10.37,2014-01-05 10:18:00,
2014-01-05 05:23:00,67.7,66.2,30.01,NW,316,2.3,2.3,95,0.00,CLR,,0.01,WeatherDisplay:10.37,2014-01-05 10:23:00,
2014-01-05 05:28:00,67.6,66.4,30.01,NW,318,0.0,0.0,96,0.00,CLR,,0.01,WeatherDisplay:10.37,2014-01-05 10:28:00,
2014-01-05 05:33:00,67.4,66.2,30.01,NW,313,2.3,2.3,96,0.00,CLR,,0.01,WeatherDisplay:10.37,2014-01-05 10:33:00,
2014-01-05 05:38:00,67.3,66.1,30.01,NW,319,3.5,3.5,96,0.00,CLR,,0.01,WeatherDisplay:10.37,2014-01-05 10:38:00,
2014-01-05 05:43:00,67.3,66.1,30.01,NW,308,3.5,3.5,96,0.00,CLR,,0.01,WeatherDisplay:10.37,2014-01-05 10:43:00,
2014-01-05 05:48:00,67.2,66.0,30.01,NNW,328,2.3,2.3,96,0.00,CLR,,0.01,WeatherDisplay:10.37,2014-01-05 10:48:00,
2014-01-05 05:53:00,67.0,65.8,30.01,NNW,348,3.5,3.5,96,0.00,CLR,,0.01,WeatherDisplay:10.37,2014-01-05 10:53:00,
2014-01-05 05:58:00,66.9,65.7,30.01,NNW,336,4.0,4.0,96,0.00,CLR,,0.01,WeatherDisplay:10.37,2014-01-05 10:58:00,
2014-01-05 06:03:00,66.8,65.6,30.01,NNW,335,3.5,3.5,96,0.00,CLR,,0.01,WeatherDisplay:10.37,2014-01-05 11:03:00,
2014-01-05 06:08:00,66.7,65.5,30.02,NW,319,1.2,1.2,96,0.00,CLR,,0.01,WeatherDisplay:10.37,2014-01-05 11:08:00,
2014-01-05 06:13:00,66.7,65.5,30.02,NW,324,3.5,3.5,96,0.00,CLR,,0.01,WeatherDisplay:10.37,2014-01-05 11:13:00,
2014-01-05 06:18:00,66.7,65.5,30.02,North,9,3.5,3.5,96,0.00,CLR,,0.01,WeatherDisplay:10.37,2014-01-05 11:18:00,
2014-01-05 06:23:00,66.6,65.4,30.02,NNW,346,1.2,0.0,96,0.00,CLR,,0.01,WeatherDisplay:10.37,2014-01-05 11:23:00,
2014-01-05 06:28:00,66.6,65.4,30.03,NNW,346,0.0,0.0,96,0.00,CLR,,0.01,WeatherDisplay:10.37,2014-01-05 11:28:00,
2014-01-05 06:33:00,66.6,65.4,30.03,NNW,345,2.3,2.3,96,0.00,CLR,,0.01,WeatherDisplay:10.37,2014-01-05 11:33:00,
2014-01-05 06:38:00,66.6,65.4,30.02,North,350,2.3,2.3,96,0.00,CLR,,0.01,WeatherDisplay:10.37,2014-01-05 11:38:00,
2014-01-05 06:43:00,66.7,65.5,30.03,North,356,3.5,3.5,96,0.00,CLR,,0.01,WeatherDisplay:10.37,2014-01-05 11:43:00,
2014-01-05 06:48:00,66.8,65.6,30.03,NNE,26,3.5,3.5,96,0.00,CLR,,0.01,WeatherDisplay:10.37,2014-01-05 11:48:00,
2014-01-05 06:53:00,66.8,65.6,30.03,North,8,3.5,3.5,96,0.00,CLR,,0.01,WeatherDisplay:10.37,2014-01-05 11:53:00,
2014-01-05 06:58:00,66.8,65.6,30.02,North,352,3.5,3.5,96,0.00,CLR,,0.01,WeatherDisplay:10.37,2014-01-05 11:58:00,
2014-01-05 07:03:00,66.9,65.7,30.02,NNE,25,7.0,7.0,96,0.00,CLR,,0.01,WeatherDisplay:10.37,2014-01-05 12:03:00,
2014-01-05 07:08:00,66.9,65.7,30.03,North,352,4.6,4.6,96,0.00,CLR,,0.01,WeatherDisplay:10.37,2014-01-05 12:08:00,
2014-01-05 07:13:00,67.0,65.8,30.03,NNE,25,1.2,1.2,96,0.00,CLR,,0.01,WeatherDisplay:10.37,2014-01-05 12:13:00,
2014-01-05 07:18:00,67.1,65.9,30.03,NE,35,2.3,2.3,96,0.00,CLR,,0.01,WeatherDisplay:10.37,2014-01-05 12:18:00,
2014-01-05 07:23:00,67.1,65.9,30.03,NE,46,3.5,3.5,96,0.00,CLR,,0.01,WeatherDisplay:10.37,2014-01-05 12:23:00,
2014-01-05 07:28:00,67.1,65.6,30.03,NNE,20,3.0,3.0,95,0.00,CLR,,0.01,WeatherDisplay:10.37,2014-01-05 12:28:00,
2014-01-05 07:33:00,67.1,65.6,30.03,NE,40,3.5,3.5,95,0.00,CLR,,0.01,WeatherDisplay:10.37,2014-01-05 12:33:00,
2014-01-05 07:38:00,67.1,65.6,30.02,NE,49,3.5,3.5,95,0.00,CLR,,0.01,WeatherDisplay:10.37,2014-01-05 12:38:00,
2014-01-05 07:43:00,67.1,65.6,30.02,NNE,29,3.5,3.5,95,0.00,CLR,,0.01,WeatherDisplay:10.37,2014-01-05 12:43:00,
2014-01-05 07:48:00,67.0,65.5,30.02,North,352,3.5,3.5,95,0.00,CLR,,0.01,WeatherDisplay:10.37,2014-01-05 12:48:00,
2014-01-05 07:53:00,66.9,65.4,30.02,NE,43,3.0,3.0,95,0.00,CLR,,0.01,WeatherDisplay:10.37,2014-01-05 12:53:00,
2014-01-05 07:58:00,66.8,65.3,30.02,NNE,33,3.5,3.5,95,0.00,CLR,,0.01,WeatherDisplay:10.37,2014-01-05 12:58:00,
2014-01-05 08:03:00,66.9,65.4,30.03,NNE,15,2.3,2.3,95,0.00,CLR,,0.01,WeatherDisplay:10.37,2014-01-05 13:03:00,
2014-01-05 08:08:00,67.2,65.7,30.03,NNW,342,3.5,3.5,95,0.00,CLR,,0.01,WeatherDisplay:10.37,2014-01-05 13:08:00,
2014-01-05 08:13:00,67.4,65.9,30.04,NNW,346,3.5,3.5,95,0.00,CLR,,0.01,WeatherDisplay:10.37,2014-01-05 13:13:00,
2014-01-05 08:18:00,67.7,66.2,30.04,North,6,2.3,2.3,95,0.00,CLR,,0.01,WeatherDisplay:10.37,2014-01-05 13:18:00,
2014-01-05 08:23:00,68.1,66.6,30.04,North,6,3.5,3.5,95,0.00,CLR,,0.01,WeatherDisplay:10.37,2014-01-05 13:23:00,
2014-01-05 08:28:00,68.2,66.4,30.04,NNE,33,3.5,3.5,94,0.00,CLR,,0.01,WeatherDisplay:10.37,2014-01-05 13:28:00,
2014-01-05 08:33:00,68.4,66.6,30.05,NNW,336,5.8,5.8,94,0.00,CLR,,0.01,WeatherDisplay:10.37,2014-01-05 13:33:00,
2014-01-05 08:38:00,68.7,66.9,30.05,NW,324,5.0,5.0,94,0.00,CLR,,0.01,WeatherDisplay:10.37,2014-01-05 13:38:00,
2014-01-05 08:43:00,69.1,67.0,30.05,NNW,338,4.6,4.6,93,0.00,CLR,,0.01,WeatherDisplay:10.37,2014-01-05 13:43:00,
2014-01-05 08:48:00,69.7,67.6,30.06,NNW,337,4.6,4.6,93,0.00,CLR,,0.01,WeatherDisplay:10.37,2014-01-05 13:48:00,
2014-01-05 08:53:00,69.8,67.4,30.06,NW,321,3.5,3.5,92,0.00,CLR,,0.01,WeatherDisplay:10.37,2014-01-05 13:53:00,
2014-01-05 08:58:00,69.8,67.1,30.06,NNW,339,4.0,4.0,91,0.00,CLR,,0.01,WeatherDisplay:10.37,2014-01-05 13:58:00,
2014-01-05 09:03:00,70.1,67.7,30.06,NNE,30,3.5,3.5,92,0.00,CLR,,0.01,WeatherDisplay:10.37,2014-01-05 14:03:00,
2014-01-05 09:08:00,70.4,67.6,30.06,NNW,340,3.5,3.5,91,0.00,CLR,,0.01,WeatherDisplay:10.37,2014-01-05 14:08:00,
2014-01-05 09:13:00,70.7,67.9,30.06,NE,44,5.8,5.8,91,0.00,CLR,,0.01,WeatherDisplay:10.37,2014-01-05 14:13:00,
2014-01-05 09:18:00,71.1,68.0,30.06,NE,34,6.0,6.0,90,0.00,CLR,,0.01,WeatherDisplay:10.37,2014-01-05 14:18:00,
2014-01-05 09:23:00,71.6,68.2,30.06,NNE,27,6.9,6.9,89,0.00,CLR,,0.01,WeatherDisplay:10.37,2014-01-05 14:23:00,
2014-01-05 09:28:00,72.0,68.6,30.06,NNE,33,3.5,3.5,89,0.00,CLR,,0.01,WeatherDisplay:10.37,2014-01-05 14:28:00,
2014-01-05 09:33:00,72.3,68.5,30.06,NE,53,4.6,4.6,88,0.00,CLR,,0.01,WeatherDisplay:10.37,2014-01-05 14:33:00,
2014-01-05 09:38:00,72.7,68.6,30.06,NE,46,5.0,5.0,87,0.00,CLR,,0.01,WeatherDisplay:10.37,2014-01-05 14:38:00,
2014-01-05 09:43:00,73.2,69.1,30.06,NE,49,5.0,5.0,87,0.00,CLR,,0.01,WeatherDisplay:10.37,2014-01-05 14:43:00,
2014-01-05 09:48:00,73.9,69.8,30.06,NE,41,5.0,5.0,87,0.00,CLR,,0.01,WeatherDisplay:10.37,2014-01-05 14:48:00,
2014-01-05 09:53:00,74.6,69.8,30.06,ENE,73,5.8,5.8,85,0.00,CLR,,0.01,WeatherDisplay:10.37,2014-01-05 14:53:00,
2014-01-05 09:58:00,74.8,69.6,30.06,NE,41,6.9,6.9,84,0.00,CLR,,0.01,WeatherDisplay:10.37,2014-01-05 14:58:00,
2014-01-05 10:03:00,74.8,69.6,30.06,ENE,69,5.0,5.0,84,0.00,CLR,,0.01,WeatherDisplay:10.37,2014-01-05 15:03:00,
2014-01-05 10:08:00,75.0,69.8,30.06,NE,39,4.0,4.0,84,0.00,CLR,,0.01,WeatherDisplay:10.37,2014-01-05 15:08:00,
2014-01-05 10:13:00,75.4,70.2,30.06,NNE,19,5.0,5.0,84,0.00,CLR,,0.01,WeatherDisplay:10.37,2014-01-05 15:13:00,
2014-01-05 10:18:00,75.9,70.4,30.06,North,3,3.5,3.5,83,0.00,CLR,,0.01,WeatherDisplay:10.37,2014-01-05 15:18:00,
2014-01-05 10:23:00,76.0,70.5,30.06,NNE,33,4.6,4.6,83,0.00,CLR,,0.01,WeatherDisplay:10.37,2014-01-05 15:23:00,
2014-01-05 10:28:00,76.3,71.1,30.06,NNE,25,6.0,6.0,84,0.00,CLR,,0.01,WeatherDisplay:10.37,2014-01-05 15:28:00,
2014-01-05 10:33:00,76.7,71.1,30.06,NNE,23,3.5,3.5,83,0.00,CLR,,0.01,WeatherDisplay:10.37,2014-01-05 15:33:00,
2014-01-05 10:38:00,77.4,71.8,30.06,East,79,6.9,6.9,83,0.00,CLR,,0.01,WeatherDisplay:10.37,2014-01-05 15:38:00,
2014-01-05 10:43:00,77.9,72.0,30.05,East,100,6.9,6.9,82,0.00,CLR,,0.01,WeatherDisplay:10.37,2014-01-05 15:43:00,
2014-01-05 10:48:00,78.1,72.2,30.05,East,79,6.9,6.9,82,0.00,CLR,,0.01,WeatherDisplay:10.37,2014-01-05 15:48:00,
2014-01-05 10:53:00,78.4,72.4,30.05,East,82,5.0,5.0,82,0.00,CLR,,0.01,WeatherDisplay:10.37,2014-01-05 15:53:00,
2014-01-05 10:55:00,78.5,72.5,30.05,ESE,120,6.9,6.9,82,0.00,CLR,,0.01,WeatherDisplay:10.37,2014-01-05 15:55:00,
2014-01-05 10:58:00,78.5,72.5,30.05,ESE,120,6.9,6.9,82,0.00,CLR,,0.01,WeatherDisplay:10.37,2014-01-05 15:58:00,
2014-01-05 11:03:00,78.5,72.5,30.05,ESE,120,6.9,6.9,82,0.00,CLR,,0.01,WeatherDisplay:10.37,2014-01-05 16:03:00,
2014-01-05 11:29:00,79.8,71.9,30.02,East,91,10.0,10.0,77,0.00,CLR,,0.01,WeatherDisplay:10.37,2014-01-05 16:29:00,
2014-01-05 11:31:00,79.8,72.3,30.02,ESE,115,10.4,10.4,78,0.00,CLR,,0.01,WeatherDisplay:10.37,2014-01-05 16:31:00,
2014-01-05 11:34:00,79.8,72.3,30.02,ESE,115,10.4,10.4,78,0.00,CLR,,0.01,WeatherDisplay:10.37,2014-01-05 16:34:00,
2014-01-05 11:39:00,79.8,72.3,30.02,ESE,115,10.4,10.4,78,0.00,CLR,,0.01,WeatherDisplay:10.37,2014-01-05 16:39:00,
2014-01-05 12:05:00,79.9,71.7,30.02,SE,128,10.4,10.4,76,0.00,CLR,,0.01,WeatherDisplay:10.37,2014-01-05 17:05:00,
2014-01-05 12:10:00,79.9,72.0,30.01,ESE,117,8.1,8.1,77,0.00,CLR,,0.01,WeatherDisplay:10.37,2014-01-05 17:10:00,
2014-01-05 12:15:00,80.0,71.8,30.01,SE,145,11.5,11.5,76,0.00,CLR,,0.01,WeatherDisplay:10.37,2014-01-05 17:15:00,
2014-01-05 12:20:00,80.5,71.4,30.01,SE,136,12.7,12.7,74,0.00,CLR,,0.01,WeatherDisplay:10.37,2014-01-05 17:20:00,
2014-01-05 12:25:00,80.8,71.7,30.01,SE,145,10.0,10.0,74,0.00,CLR,,0.01,WeatherDisplay:10.37,2014-01-05 17:25:00,
2014-01-05 12:30:00,80.3,71.3,30.01,SE,140,9.2,9.2,74,0.00,CLR,,0.01,WeatherDisplay:10.37,2014-01-05 17:30:00,
2014-01-05 12:35:00,80.6,71.9,30.00,SE,126,8.0,8.0,75,0.00,CLR,,0.01,WeatherDisplay:10.37,2014-01-05 17:35:00,
2014-01-05 12:40:00,81.0,71.5,30.00,SE,124,6.9,6.9,73,0.00,CLR,,0.01,WeatherDisplay:10.37,2014-01-05 17:40:00,
2014-01-05 12:45:00,81.0,71.9,30.00,South,180,11.5,11.5,74,0.00,CLR,,0.01,WeatherDisplay:10.37,2014-01-05 17:45:00,
2014-01-05 12:50:00,81.1,71.2,30.00,SSE,150,8.1,8.1,72,0.00,CLR,,0.01,WeatherDisplay:10.37,2014-01-05 17:50:00,
2014-01-05 12:55:00,81.6,72.5,29.99,South,180,9.0,9.0,74,0.00,CLR,,0.01,WeatherDisplay:10.37,2014-01-05 17:55:00,
2014-01-05 13:00:00,81.7,71.8,29.99,SSE,148,8.1,8.1,72,0.00,CLR,,0.01,WeatherDisplay:10.37,2014-01-05 18:00:00,
2014-01-05 13:05:00,81.9,71.6,29.99,SE,135,9.2,9.2,71,0.00,CLR,,0.01,WeatherDisplay:10.37,2014-01-05 18:05:00,
2014-01-05 13:10:00,81.6,71.3,29.98,SSE,162,10.0,10.0,71,0.00,CLR,,0.01,WeatherDisplay:10.37,2014-01-05 18:10:00,
2014-01-05 13:15:00,81.7,71.4,29.98,SSE,148,12.0,12.0,71,0.00,CLR,,0.01,WeatherDisplay:10.37,2014-01-05 18:15:00,
2014-01-05 13:20:00,81.7,71.0,29.99,SSE,148,11.5,11.5,70,0.00,CLR,,0.01,WeatherDisplay:10.37,2014-01-05 18:20:00,
2014-01-05 13:25:00,82.0,70.4,29.98,SSW,205,10.4,10.4,68,0.00,CLR,,0.01,WeatherDisplay:10.37,2014-01-05 18:25:00,
2014-01-05 13:30:00,81.8,70.6,29.98,SSW,200,8.1,8.1,69,0.00,CLR,,0.01,WeatherDisplay:10.37,2014-01-05 18:30:00,
2014-01-05 13:35:00,81.3,70.2,29.98,SSE,160,11.5,11.5,69,0.00,CLR,,0.01,WeatherDisplay:10.37,2014-01-05 18:35:00,
2014-01-05 13:40:00,81.0,70.3,29.98,ESE,122,9.0,9.0,70,0.00,CLR,,0.01,WeatherDisplay:10.37,2014-01-05 18:40:00,
2014-01-05 13:45:00,80.7,70.0,29.98,SSE,153,11.5,11.5,70,0.00,CLR,,0.01,WeatherDisplay:10.37,2014-01-05 18:45:00,
2014-01-05 13:50:00,80.8,70.9,29.98,South,176,8.1,8.1,72,0.00,CLR,,0.01,WeatherDisplay:10.37,2014-01-05 18:50:00,
2014-01-05 13:52:00,80.9,71.4,29.98,SSW,207,5.8,5.8,73,0.00,CLR,,0.01,WeatherDisplay:10.37,2014-01-05 18:52:00,
2014-01-05 13:55:00,80.9,71.4,29.98,SSW,207,5.8,5.8,73,0.00,CLR,,0.01,WeatherDisplay:10.37,2014-01-05 18:55:00,
2014-01-05 14:00:00,80.9,71.4,29.98,SSW,207,5.8,5.8,73,0.00,CLR,,0.01,WeatherDisplay:10.37,2014-01-05 19:00:00,
2014-01-05 14:25:00,81.6,71.7,29.98,SE,136,10.0,10.0,72,0.00,CLR,,0.01,WeatherDisplay:10.37,2014-01-05 19:25:00,
2014-01-05 14:30:00,81.3,71.0,29.98,SSW,210,8.1,8.1,71,0.00,CLR,,0.01,WeatherDisplay:10.37,2014-01-05 19:30:00,
2014-01-05 14:35:00,81.4,71.9,29.98,WSW,243,2.3,2.3,73,0.00,CLR,,0.01,WeatherDisplay:10.37,2014-01-05 19:35:00,
2014-01-05 14:40:00,81.5,71.6,29.98,SSW,198,4.0,4.0,72,0.00,CLR,,0.01,WeatherDisplay:10.37,2014-01-05 19:40:00,
2014-01-05 14:45:00,81.1,71.2,29.97,West,281,5.8,5.8,72,0.00,CLR,,0.01,WeatherDisplay:10.37,2014-01-05 19:45:00,
2014-01-05 14:50:00,81.0,71.5,29.97,South,170,3.5,3.5,73,0.00,CLR,,0.01,WeatherDisplay:10.37,2014-01-05 19:50:00,
2014-01-05 14:55:00,81.3,71.8,29.97,SSW,210,3.5,3.5,73,0.00,CLR,,0.01,WeatherDisplay:10.37,2014-01-05 19:55:00,
2014-01-05 15:00:00,81.0,71.5,29.97,SSW,198,5.8,5.8,73,0.00,CLR,,0.01,WeatherDisplay:10.37,2014-01-05 20:00:00,
2014-01-05 15:05:00,81.2,71.3,29.97,SSE,156,4.6,4.6,72,0.00,CLR,,0.01,WeatherDisplay:10.37,2014-01-05 20:05:00,
2014-01-05 15:10:00,80.8,70.9,29.97,SW,226,8.1,8.1,72,0.00,CLR,,0.01,WeatherDisplay:10.37,2014-01-05 20:10:00,
2014-01-05 15:15:00,80.4,70.9,29.97,ESE,122,5.0,5.0,73,0.00,CLR,,0.01,WeatherDisplay:10.37,2014-01-05 20:15:00,
2014-01-05 15:20:00,80.4,71.3,29.97,SSE,165,5.8,5.8,74,0.00,CLR,,0.01,WeatherDisplay:10.37,2014-01-05 20:20:00,
2014-01-05 15:25:00,80.8,71.7,29.97,WSW,250,3.5,3.5,74,0.00,CLR,,0.01,WeatherDisplay:10.37,2014-01-05 20:25:00,
2014-01-05 15:30:00,81.3,71.4,29.98,ESE,120,5.0,5.0,72,0.00,CLR,,0.01,WeatherDisplay:10.37,2014-01-05 20:30:00,
2014-01-05 15:35:00,81.2,71.3,29.98,SSE,153,3.5,3.5,72,0.00,CLR,,0.01,WeatherDisplay:10.37,2014-01-05 20:35:00,
2014-01-05 15:40:00,80.9,71.0,29.98,ESE,117,3.5,3.5,72,0.00,CLR,,0.01,WeatherDisplay:10.37,2014-01-05 20:40:00,
2014-01-05 15:45:00,80.7,71.2,29.98,SW,217,5.8,5.8,73,0.00,CLR,,0.01,WeatherDisplay:10.37,2014-01-05 20:45:00,
2014-01-05 15:50:00,80.3,70.4,29.98,South,173,9.2,9.2,72,0.00,CLR,,0.01,WeatherDisplay:10.37,2014-01-05 20:50:00,
2014-01-05 15:55:00,80.1,71.1,29.98,SW,215,5.8,5.8,74,0.00,CLR,,0.01,WeatherDisplay:10.37,2014-01-05 20:55:00,
2014-01-05 16:00:00,80.1,70.7,29.98,SE,128,5.8,5.8,73,0.00,CLR,,0.01,WeatherDisplay:10.37,2014-01-05 21:00:00,
2014-01-05 16:05:00,79.7,71.1,29.98,SE,128,4.6,4.6,75,0.00,CLR,,0.01,WeatherDisplay:10.37,2014-01-05 21:05:00,
2014-01-05 16:10:00,79.8,71.2,29.98,SSE,167,3.5,3.5,75,0.00,CLR,,0.01,WeatherDisplay:10.37,2014-01-05 21:10:00,
2014-01-05 16:15:00,79.4,70.4,29.99,SSE,156,8.1,8.1,74,0.00,CLR,,0.01,WeatherDisplay:10.37,2014-01-05 21:15:00,
2014-01-05 16:20:00,79.4,71.2,29.99,SE,143,3.5,3.5,76,0.00,CLR,,0.01,WeatherDisplay:10.37,2014-01-05 21:20:00,
2014-01-05 16:25:00,79.3,70.7,29.99,West,263,3.5,3.5,75,0.00,CLR,,0.01,WeatherDisplay:10.37,2014-01-05 21:25:00,
2014-01-05 16:30:00,79.4,71.2,29.98,SW,217,2.3,2.3,76,0.00,CLR,,0.01,WeatherDisplay:10.37,2014-01-05 21:30:00,
2014-01-05 16:35:00,79.4,71.2,29.99,SE,139,2.3,2.3,76,0.00,CLR,,0.01,WeatherDisplay:10.37,2014-01-05 21:35:00,
2014-01-05 16:40:00,79.4,71.2,29.99,SSE,167,4.0,4.0,76,0.00,CLR,,0.01,WeatherDisplay:10.37,2014-01-05 21:40:00,
2014-01-05 16:45:00,78.8,70.6,29.99,South,169,3.5,3.5,76,0.00,CLR,,0.01,WeatherDisplay:10.37,2014-01-05 21:45:00,
2014-01-05 16:50:00,78.6,70.8,29.99,SSE,163,3.5,3.5,77,0.00,CLR,,0.01,WeatherDisplay:10.37,2014-01-05 21:50:00,
2014-01-05 16:55:00,78.4,70.6,29.99,SE,142,3.5,3.5,77,0.00,CLR,,0.01,WeatherDisplay:10.37,2014-01-05 21:55:00,
2014-01-05 17:00:00,78.3,70.9,29.99,SSE,148,3.5,3.5,78,0.00,CLR,,0.01,WeatherDisplay:10.37,2014-01-05 22:00:00,
2014-01-05 17:05:00,77.9,70.9,29.98,SE,128,2.3,2.3,79,0.00,CLR,,0.01,WeatherDisplay:10.37,2014-01-05 22:05:00,
2014-01-05 17:10:00,77.8,70.8,29.99,SE,134,3.0,3.0,79,0.00,CLR,,0.01,WeatherDisplay:10.37,2014-01-05 22:10:00,
2014-01-05 17:15:00,77.4,70.4,29.99,SSE,163,2.3,2.3,79,0.00,CLR,,0.01,WeatherDisplay:10.37,2014-01-05 22:15:00,
2014-01-05 17:20:00,77.1,70.5,29.99,SSE,150,2.3,2.3,80,0.00,CLR,,0.01,WeatherDisplay:10.37,2014-01-05 22:20:00,
2014-01-05 17:25:00,76.8,70.5,29.99,SSE,155,1.2,0.0,81,0.00,CLR,,0.01,WeatherDisplay:10.37,2014-01-05 22:25:00,
2014-01-05 17:30:00,76.5,70.6,29.99,SSE,155,0.0,0.0,82,0.00,CLR,,0.01,WeatherDisplay:10.37,2014-01-05 22:30:00,
2014-01-05 17:35:00,76.1,70.6,29.99,SSE,155,0.0,0.0,83,0.00,CLR,,0.01,WeatherDisplay:10.37,2014-01-05 22:35:00,
2014-01-05 17:40:00,75.8,70.6,29.99,SSE,155,0.0,0.0,84,0.00,CLR,,0.01,WeatherDisplay:10.37,2014-01-05 22:40:00,
2014-01-05 17:45:00,75.5,70.3,29.99,SSE,155,0.0,0.0,84,0.00,CLR,,0.01,WeatherDisplay:10.37,2014-01-05 22:45:00,
2014-01-05 17:50:00,75.2,70.0,29.99,SSE,155,0.0,0.0,84,0.00,CLR,,0.01,WeatherDisplay:10.37,2014-01-05 22:50:00,
2014-01-05 17:55:00,75.0,70.2,29.99,SSE,155,0.0,0.0,85,0.00,CLR,,0.01,WeatherDisplay:10.37,2014-01-05 22:55:00,
2014-01-05 18:00:00,75.0,70.2,29.99,SSE,155,0.0,0.0,85,0.00,CLR,,0.01,WeatherDisplay:10.37,2014-01-05 23:00:00,
2014-01-05 18:05:00,74.9,70.1,29.99,SSE,155,0.0,0.0,85,0.00,CLR,,0.01,WeatherDisplay:10.37,2014-01-05 23:05:00,
2014-01-05 18:10:00,74.9,70.4,29.99,SSE,155,0.0,0.0,86,0.00,CLR,,0.01,WeatherDisplay:10.37,2014-01-05 23:10:00,
2014-01-05 18:15:00,74.8,70.3,29.99,SSE,155,0.0,0.0,86,0.00,CLR,,0.01,WeatherDisplay:10.37,2014-01-05 23:15:00,
2014-01-05 18:20:00,74.6,70.1,29.99,SSE,155,0.0,0.0,86,0.00,CLR,,0.01,WeatherDisplay:10.37,2014-01-05 23:20:00,
2014-01-05 18:25:00,74.6,70.5,29.99,SSE,155,0.0,0.0,87,0.00,CLR,,0.01,WeatherDisplay:10.37,2014-01-05 23:25:00,
2014-01-05 18:30:00,74.5,70.4,30.00,SSE,155,0.0,0.0,87,0.00,CLR,,0.01,WeatherDisplay:10.37,2014-01-05 23:30:00,
2014-01-05 18:35:00,74.4,70.3,30.00,SSE,155,0.0,0.0,87,0.00,CLR,,0.01,WeatherDisplay:10.37,2014-01-05 23:35:00,
2014-01-05 18:40:00,74.0,69.9,30.00,SSE,155,0.0,0.0,87,0.00,CLR,,0.01,WeatherDisplay:10.37,2014-01-05 23:40:00,
2014-01-05 18:45:00,73.7,69.9,30.00,SSE,155,0.0,0.1,88,0.00,CLR,,0.01,WeatherDisplay:10.37,2014-01-05 23:45:00,
2014-01-05 18:50:00,73.3,69.5,30.00,SSE,155,0.0,0.0,88,0.00,CLR,,0.01,WeatherDisplay:10.37,2014-01-05 23:50:00,
2014-01-05 18:55:00,73.0,69.6,30.00,SSE,155,0.0,0.0,89,0.00,CLR,,0.01,WeatherDisplay:10.37,2014-01-05 23:55:00,
2014-01-05 19:00:00,72.6,69.5,30.00,SSE,155,0.0,0.0,90,0.00,CLR,,0.01,WeatherDisplay:10.37,2014-01-06 00:00:00,
2014-01-05 19:05:00,72.4,69.3,30.00,SSE,155,0.0,0.0,90,0.00,CLR,,0.01,WeatherDisplay:10.37,2014-01-06 00:05:00,
2014-01-05 19:10:00,72.1,69.0,30.00,SSE,155,0.0,0.0,90,0.00,CLR,,0.01,WeatherDisplay:10.37,2014-01-06 00:10:00,
2014-01-05 19:15:00,72.0,69.2,30.00,SSE,155,0.0,0.0,91,0.00,CLR,,0.01,WeatherDisplay:10.37,2014-01-06 00:15:00,
2014-01-05 19:20:00,71.7,68.9,30.00,SSE,155,0.0,0.0,91,0.00,CLR,,0.01,WeatherDisplay:10.37,2014-01-06 00:20:00,
2014-01-05 19:25:00,71.5,68.7,30.00,SSE,155,0.0,0.0,91,0.00,CLR,,0.01,WeatherDisplay:10.37,2014-01-06 00:25:00,
2014-01-05 19:30:00,71.2,68.4,30.00,SSE,155,0.0,0.0,91,0.00,CLR,,0.01,WeatherDisplay:10.37,2014-01-06 00:30:00,
2014-01-05 19:35:00,71.1,68.7,30.00,SSE,155,0.0,0.0,92,0.00,CLR,,0.01,WeatherDisplay:10.37,2014-01-06 00:35:00,
2014-01-05 19:40:00,70.9,68.5,30.00,SSE,155,0.0,0.0,92,0.00,CLR,,0.01,WeatherDisplay:10.37,2014-01-06 00:40:00,
2014-01-05 19:45:00,70.7,68.3,30.00,SSE,155,0.0,0.0,92,0.00,CLR,,0.01,WeatherDisplay:10.37,2014-01-06 00:45:00,
2014-01-05 19:50:00,70.7,68.6,30.01,SSE,155,0.0,0.0,93,0.00,CLR,,0.01,WeatherDisplay:10.37,2014-01-06 00:50:00,
2014-01-05 19:55:00,70.7,68.6,30.01,SSE,155,0.0,0.0,93,0.00,CLR,,0.01,WeatherDisplay:10.37,2014-01-06 00:55:00,
2014-01-05 20:00:00,70.5,68.4,30.01,SSE,155,0.0,0.0,93,0.00,CLR,,0.01,WeatherDisplay:10.37,2014-01-06 01:00:00,
2014-01-05 20:05:00,70.4,68.3,30.01,SSE,155,0.0,0.0,93,0.00,CLR,,0.01,WeatherDisplay:10.37,2014-01-06 01:05:00,
2014-01-05 20:10:00,70.3,68.2,30.01,SSE,155,0.0,0.0,93,0.00,CLR,,0.01,WeatherDisplay:10.37,2014-01-06 01:10:00,
2014-01-05 20:15:00,70.2,68.1,30.01,SSE,155,0.0,0.0,93,0.00,CLR,,0.01,WeatherDisplay:10.37,2014-01-06 01:15:00,
2014-01-05 20:20:00,70.1,68.0,30.01,SSE,155,0.0,0.0,93,0.00,CLR,,0.01,WeatherDisplay:10.37,2014-01-06 01:20:00,
2014-01-05 20:25:00,70.0,68.2,30.01,SSE,155,0.0,0.0,94,0.00,CLR,,0.01,WeatherDisplay:10.37,2014-01-06 01:25:00,
2014-01-05 20:30:00,69.9,68.1,30.01,SSE,155,0.0,0.0,94,0.00,CLR,,0.01,WeatherDisplay:10.37,2014-01-06 01:30:00,
2014-01-05 20:35:00,69.5,67.7,30.01,SSE,155,0.0,0.0,94,0.00,CLR,,0.01,WeatherDisplay:10.37,2014-01-06 01:35:00,
2014-01-05 20:40:00,69.4,67.6,30.01,SSE,155,0.0,0.0,94,0.00,CLR,,0.01,WeatherDisplay:10.37,2014-01-06 01:40:00,
2014-01-05 20:45:00,69.3,67.5,30.01,SSE,155,0.0,0.0,94,0.00,CLR,,0.01,WeatherDisplay:10.37,2014-01-06 01:45:00,
2014-01-05 20:50:00,69.3,67.8,30.01,SSE,155,0.0,0.0,95,0.00,CLR,,0.01,WeatherDisplay:10.37,2014-01-06 01:50:00,
2014-01-05 20:55:00,69.2,67.7,30.01,SSE,155,0.0,0.0,95,0.00,CLR,,0.01,WeatherDisplay:10.37,2014-01-06 01:55:00,
2014-01-05 21:00:00,69.1,67.6,30.01,SSE,155,0.0,0.0,95,0.00,CLR,,0.01,WeatherDisplay:10.37,2014-01-06 02:00:00,
2014-01-05 21:05:00,69.1,67.6,30.01,SSE,155,0.0,0.0,95,0.00,CLR,,0.01,WeatherDisplay:10.37,2014-01-06 02:05:00,
2014-01-05 21:10:00,68.9,67.4,30.01,SSE,155,0.0,0.0,95,0.00,CLR,,0.01,WeatherDisplay:10.37,2014-01-06 02:10:00,
2014-01-05 21:15:00,68.7,67.2,30.01,SSE,155,0.0,0.0,95,0.00,CLR,,0.01,WeatherDisplay:10.37,2014-01-06 02:15:00,
2014-01-05 21:21:00,68.4,66.9,30.01,SSE,155,0.0,0.0,95,0.00,CLR,,0.01,WeatherDisplay:10.37,2014-01-06 02:21:00,
2014-01-05 21:26:00,68.2,66.7,30.02,SSE,155,0.0,0.0,95,0.00,CLR,,0.01,WeatherDisplay:10.37,2014-01-06 02:26:00,
2014-01-05 21:31:00,68.1,66.6,30.02,SSE,155,0.0,0.0,95,0.00,CLR,,0.01,WeatherDisplay:10.37,2014-01-06 02:31:00,
2014-01-05 21:36:00,68.0,66.8,30.02,SSE,155,0.0,0.0,96,0.00,CLR,,0.01,WeatherDisplay:10.37,2014-01-06 02:36:00,
2014-01-05 21:41:00,67.7,66.2,30.01,SSE,155,0.0,0.0,95,0.00,CLR,,0.01,WeatherDisplay:10.37,2014-01-06 02:41:00,
2014-01-05 21:46:00,67.3,65.8,30.01,SSE,155,0.0,0.0,95,0.00,CLR,,0.01,WeatherDisplay:10.37,2014-01-06 02:46:00,
2014-01-05 21:51:00,66.9,65.4,30.01,SSE,155,0.0,0.0,95,0.00,CLR,,0.01,WeatherDisplay:10.37,2014-01-06 02:51:00,
2014-01-05 21:56:00,66.7,65.5,30.02,SSE,155,0.0,0.0,96,0.00,CLR,,0.01,WeatherDisplay:10.37,2014-01-06 02:56:00,
2014-01-05 22:01:00,67.0,65.8,30.02,SSE,155,0.0,0.0,96,0.00,CLR,,0.01,WeatherDisplay:10.37,2014-01-06 03:01:00,
2014-01-05 22:06:00,66.8,65.6,30.01,SSE,155,0.0,0.0,96,0.00,CLR,,0.01,WeatherDisplay:10.37,2014-01-06 03:06:00,
2014-01-05 22:11:00,66.6,65.4,30.01,SSE,155,0.0,0.0,96,0.00,CLR,,0.01,WeatherDisplay:10.37,2014-01-06 03:11:00,
2014-01-05 22:16:00,66.5,65.3,30.01,SSE,155,0.0,0.0,96,0.00,CLR,,0.01,WeatherDisplay:10.37,2014-01-06 03:16:00,
2014-01-05 22:21:00,66.6,65.7,30.01,SSE,155,0.0,0.0,97,0.00,CLR,,0.01,WeatherDisplay:10.37,2014-01-06 03:21:00,
2014-01-05 22:26:00,66.7,65.5,30.01,SSE,155,0.0,0.0,96,0.00,CLR,,0.01,WeatherDisplay:10.37,2014-01-06 03:26:00,
2014-01-05 22:31:00,66.5,65.3,30.01,SSE,155,0.0,0.0,96,0.00,CLR,,0.01,WeatherDisplay:10.37,2014-01-06 03:31:00,
2014-01-05 22:36:00,66.5,65.6,30.01,SSE,155,0.0,0.0,97,0.00,CLR,,0.01,WeatherDisplay:10.37,2014-01-06 03:36:00,
2014-01-05 22:41:00,66.9,66.0,30.01,SSE,155,0.0,0.0,97,0.00,CLR,,0.01,WeatherDisplay:10.37,2014-01-06 03:41:00,
2014-01-05 22:46:00,67.0,66.1,30.02,SSE,155,0.0,0.0,97,0.00,CLR,,0.01,WeatherDisplay:10.37,2014-01-06 03:46:00,
2014-01-05 22:51:00,67.1,66.2,30.01,SSE,155,0.0,0.0,97,0.00,CLR,,0.01,WeatherDisplay:10.37,2014-01-06 03:51:00,
2014-01-05 22:56:00,67.1,66.2,30.01,SSE,155,1.2,1.2,97,0.00,CLR,,0.01,WeatherDisplay:10.37,2014-01-06 03:56:00,
2014-01-05 23:01:00,67.3,66.4,30.01,SE,134,0.0,0.0,97,0.00,CLR,,0.01,WeatherDisplay:10.37,2014-01-06 04:01:00,
2014-01-05 23:06:00,67.4,66.5,30.01,SE,136,0.0,0.0,97,0.00,CLR,,0.01,WeatherDisplay:10.37,2014-01-06 04:06:00,
2014-01-05 23:11:00,67.5,66.6,30.01,SE,132,0.0,0.0,97,0.00,CLR,,0.01,WeatherDisplay:10.37,2014-01-06 04:11:00,
2014-01-05 23:16:00,67.4,66.5,30.01,SE,132,0.0,0.0,97,0.00,CLR,,0.01,WeatherDisplay:10.37,2014-01-06 04:16:00,
2014-01-05 23:21:00,67.4,66.5,30.01,SE,133,0.0,0.0,97,0.00,CLR,,0.01,WeatherDisplay:10.37,2014-01-06 04:21:00,
2014-01-05 23:26:00,67.4,66.5,30.01,SE,132,0.0,0.0,97,0.00,CLR,,0.01,WeatherDisplay:10.37,2014-01-06 04:26:00,
2014-01-05 23:31:00,67.4,66.5,30.01,SE,133,0.0,0.0,97,0.00,CLR,,0.01,WeatherDisplay:10.37,2014-01-06 04:31:00,
2014-01-05 23:36:00,67.3,66.4,30.01,SE,133,0.0,0.0,97,0.00,CLR,,0.01,WeatherDisplay:10.37,2014-01-06 04:36:00,
2014-01-05 23:41:00,67.3,66.4,30.00,SE,142,0.0,0.0,97,0.00,CLR,,0.01,WeatherDisplay:10.37,2014-01-06 04:41:00,
2014-01-05 23:46:00,67.3,66.4,30.01,SE,143,0.0,0.0,97,0.00,CLR,,0.01,WeatherDisplay:10.37,2014-01-06 04:46:00,
2014-01-05 23:51:00,67.3,66.4,30.00,SE,141,0.0,0.0,97,0.00,CLR,,0.01,WeatherDisplay:10.37,2014-01-06 04:51:00,
2014-01-05 23:56:00,67.3,66.4,30.00,ESE,123,0.0,0.0,97,0.00,CLR,,0.01,WeatherDisplay:10.37,2014-01-06 04:56:00,